,�O�C���x,�����t���O,�O�C���x,�����t���O,�󒲎����x,�����t���O,�󒲎����x,�����t���O,��󒲎����x,�����t���O,����,�����t���O
2004/3/1 0:00,12.5,0,73,0,19.8,0,51.8,0,18.1,0,13.8,0
2004/3/1 0:15,12.3,0,73,0,19.7,0,51.2,0,18.1,0,13.9,0
2004/3/1 0:30,12,0,74,0,19.7,0,51,0,18.1,0,13.9,0
2004/3/1 0:45,12.1,0,72,0,19.6,0,51.2,0,18.1,0,14,0
2004/3/1 1:00,12.3,0,73,0,19.6,0,51,0,18.1,0,14.4,0
2004/3/1 1:15,12.3,0,73,0,19.6,0,50.9,0,18.3,0,13.4,0
2004/3/1 1:30,12.4,0,72,0,19.5,0,51,0,18.3,0,13.6,0
2004/3/1 1:45,12.5,0,72,0,19.5,0,50.9,0,18.2,0,13.7,0
2004/3/1 2:00,12.4,0,72,0,19.5,0,50.9,0,18.2,0,13.7,0
2004/3/1 2:15,12.5,0,72,0,19.5,0,50.8,0,18.1,0,13.8,0
2004/3/1 2:30,12.4,0,69,0,19.5,0,50.8,0,18.1,0,13.9,0
2004/3/1 2:45,12.4,0,66,0,19.4,0,50.7,0,18.1,0,14.3,0
2004/3/1 3:00,12.3,0,65,0,19.4,0,50.4,0,18.1,0,14.4,0
2004/3/1 3:15,12.2,0,65,0,19.4,0,50.4,0,18,0,14.4,0
2004/3/1 3:30,12.1,0,63,0,19.4,0,50,0,18,0,14.5,0
2004/3/1 3:45,12,0,63,0,19.4,0,49.8,0,18,0,14.5,0
2004/3/1 4:00,12,0,63,0,19.3,0,49.7,0,18,0,14.6,0
2004/3/1 4:15,11.8,0,62,0,19.3,0,49.3,0,18,0,14.7,0
2004/3/1 4:30,11.8,0,60,0,19.3,0,49.2,0,18,0,14.8,0
2004/3/1 4:45,11.8,0,65,0,19.3,0,49,0,18,0,14.8,0
2004/3/1 5:00,11.4,0,68,0,19.1,0,49.1,0,17.9,0,14.9,0
2004/3/1 5:15,11.5,0,66,0,19.2,0,51.2,0,17.9,0,14.9,0
2004/3/1 5:30,11.5,0,65,0,19.1,0,49.5,0,17.9,0,15,0
2004/3/1 5:45,11.5,0,60,0,19.2,0,49.5,0,17.9,0,15,0
2004/3/1 6:00,11.4,0,59,0,19.3,0,53.9,0,18,0,14.7,0
2004/3/1 6:15,11.5,0,61,0,19.3,0,58.3,0,18,0,14.8,0
2004/3/1 6:30,11.5,0,63,0,19.4,0,59.7,0,18,0,13.4,0
2004/3/1 6:45,11.4,0,62,0,19.3,0,56.4,0,18,0,13.5,0
2004/3/1 7:00,11.4,0,68,0,19.3,0,55.5,0,17.9,0,13.6,0
2004/3/1 7:15,10.8,0,66,0,19.5,0,60.9,0,17.9,0,13.7,0
2004/3/1 7:30,10.9,0,61,0,19.5,0,58.2,0,17.9,0,13.8,0
2004/3/1 7:45,11,0,58,0,19.6,0,56.2,0,18,0,13.9,0
2004/3/1 8:00,11.3,0,59,0,19.7,0,61.3,0,18,0,14,0
2004/3/1 8:15,11.4,0,57,0,19.5,0,56.8,0,17.9,0,14.3,0
2004/3/1 8:30,11.5,0,55,0,19.3,0,55.8,0,18,0,13.1,0
2004/3/1 8:45,11.5,0,58,0,19,0,56.5,0,17.9,0,12.7,0
2004/3/1 9:00,11.5,0,69,0,18.9,0,56,0,18,0,12.8,0
2004/3/1 9:15,10.1,0,77,0,19.1,0,55.5,0,18.1,0,12.4,0
2004/3/1 9:30,9.5,0,83,0,18.9,0,55,0,18.1,0,12.4,0
2004/3/1 9:45,9.4,0,83,0,18.9,0,54.3,0,18.1,0,12.5,0
2004/3/1 10:00,9.4,0,80,0,19,0,52.4,0,18,0,12.6,0
2004/3/1 10:15,9.6,0,79,0,19,0,52.7,0,17.9,0,12.7,0
2004/3/1 10:30,9.4,0,77,0,19,0,51.5,0,17.9,0,12.8,0
2004/3/1 10:45,9.6,0,77,0,19.1,0,56.8,0,17.9,0,12.9,0
2004/3/1 11:00,9.7,0,77,0,19.2,0,62.1,0,17.9,0,13,0
2004/3/1 11:15,9.8,0,75,0,18.7,0,51.1,0,17.9,0,13,0
2004/3/1 11:30,10,0,74,0,19.2,0,51.1,0,17.8,0,12.6,0
2004/3/1 11:45,10.1,0,72,0,19.2,0,51.4,0,17.8,0,12.7,0
2004/3/1 12:00,10,0,73,0,19.1,0,51.5,0,17.8,0,12.8,0
2004/3/1 12:15,9.9,0,73,0,19.1,0,51.5,0,17.8,0,12.9,0
2004/3/1 12:30,9.8,0,70,0,19,0,51.5,0,17.8,0,13,0
2004/3/1 12:45,9.3,0,72,0,19,0,51.4,0,17.8,0,13.1,0
2004/3/1 13:00,9.8,0,71,0,19,0,51.2,0,17.9,0,13.2,0
2004/3/1 13:15,10.2,0,63,0,19,0,50.8,0,17.9,0,13.3,0
2004/3/1 13:30,10.1,0,60,0,19,0,50.2,0,17.9,0,13.4,0
2004/3/1 13:45,10.2,0,57,0,19,0,49.7,0,17.9,0,13.5,0
2004/3/1 14:00,10.3,0,58,0,18.9,0,49.4,0,17.9,0,13.6,0
2004/3/1 14:15,10.3,0,54,0,18.9,0,49.3,0,17.9,0,13.7,0
2004/3/1 14:30,10.4,0,57,0,18.7,0,50.1,0,17.9,0,13.7,0
2004/3/1 14:45,10.1,0,62,0,19.2,0,53,0,17.9,0,13.8,0
2004/3/1 15:00,10.1,0,62,0,19.4,0,54.4,0,17.9,0,13.9,0
2004/3/1 15:15,10.1,0,60,0,19.4,0,54.6,0,17.9,0,14,0
2004/3/1 15:30,10.1,0,58,0,19.3,0,53.8,0,17.9,0,13.2,0
2004/3/1 15:45,9.6,0,56,0,19.3,0,52.8,0,17.8,0,13.3,0
2004/3/1 16:00,9.5,0,54,0,19.4,0,54.6,0,17.8,0,13.4,0
2004/3/1 16:15,9.8,0,53,0,19.4,0,54.7,0,17.8,0,11.8,0
2004/3/1 16:30,9.4,0,50,0,19.4,0,53.9,0,17.8,0,11.9,0
2004/3/1 16:45,9.5,0,50,0,19.6,0,57.2,0,17.8,0,12,0
2004/3/1 17:00,9.2,0,53,0,19.9,0,62.8,0,17.8,0,12.2,0
2004/3/1 17:15,9.4,0,54,0,20.3,0,61.8,0,17.8,0,12.3,0
2004/3/1 17:30,9.3,0,56,0,19.7,0,58.6,0,18,0,12.4,0
2004/3/1 17:45,9.1,0,54,0,19.5,0,56.3,0,17.9,0,12.5,0
2004/3/1 18:00,9.4,0,53,0,19.5,0,54,0,17.9,0,12.6,0
2004/3/1 18:15,9.3,0,53,0,19.5,0,52.2,0,17.8,0,12.8,0
2004/3/1 18:30,9.3,0,55,0,19.5,0,51.9,0,17.8,0,12.9,0
2004/3/1 18:45,9.2,0,54,0,19.8,0,59.8,0,17.8,0,13,0
2004/3/1 19:00,9.3,0,55,0,19.9,0,61.7,0,17.8,0,13.1,0
2004/3/1 19:15,9.3,0,55,0,19.9,0,65.3,0,17.7,0,13.2,0
2004/3/1 19:30,9.3,0,55,0,19.9,0,65.5,0,17.7,0,13.3,0
2004/3/1 19:45,9.3,0,54,0,19.9,0,60.2,0,17.7,0,13.4,0
2004/3/1 20:00,9.5,0,55,0,19.9,0,55.8,0,17.7,0,13.5,0
2004/3/1 20:15,9.5,0,56,0,19.7,0,54.1,0,17.7,0,13.1,0
2004/3/1 20:30,9.5,0,55,0,19.6,0,52.3,0,17.6,0,13.2,0
2004/3/1 20:45,9.5,0,56,0,19.5,0,50.9,0,17.6,0,13.3,0
2004/3/1 21:00,9.5,0,56,0,19.5,0,52,0,17.6,0,13,0
2004/3/1 21:15,9.6,0,57,0,19.6,0,51.9,0,17.6,0,12.4,0
2004/3/1 21:30,9.6,0,57,0,19.7,0,52.2,0,17.6,0,12.5,0
2004/3/1 21:45,9.8,0,57,0,19.7,0,52.2,0,17.6,0,12.6,0
2004/3/1 22:00,9.7,0,58,0,19.6,0,52,0,17.6,0,12,0
2004/3/1 22:15,9.7,0,59,0,19.6,0,51.8,0,17.6,0,12.1,0
2004/3/1 22:30,9.6,0,59,0,19.6,0,51.1,0,17.6,0,12.2,0
2004/3/1 22:45,9.6,0,61,0,19.7,0,51.2,0,17.6,0,12.4,0
2004/3/1 23:00,9.5,0,61,0,19.7,0,51,0,17.6,0,12.5,0
2004/3/1 23:15,9.6,0,62,0,19.7,0,50.7,0,17.8,0,13.6,0
2004/3/1 23:30,9.5,0,63,0,19.7,0,51.1,0,17.8,0,12.5,0
2004/3/1 23:45,9.5,0,64,0,19.8,0,52.5,0,17.8,0,12.6,0
2004/3/2 0:00,9.5,0,65,0,19.8,0,52.2,0,17.7,0,12.7,0
2004/3/2 0:15,9.3,0,64,0,19.8,0,51.9,0,17.7,0,12.8,0
2004/3/2 0:30,9.2,0,65,0,19.7,0,51.4,0,17.7,0,12.6,0
2004/3/2 0:45,9.1,0,65,0,19.6,0,51.1,0,17.6,0,12.7,0
2004/3/2 1:00,9,0,65,0,19.5,0,51,0,17.6,0,12.8,0
2004/3/2 1:15,8.9,0,65,0,19.4,0,50.7,0,17.6,0,12.9,0
2004/3/2 1:30,8.8,0,65,0,19.3,0,50.8,0,17.7,0,13.3,0
2004/3/2 1:45,8.7,0,65,0,19.3,0,50.6,0,18,0,12.4,0
2004/3/2 2:00,8.6,0,66,0,19.2,0,50.1,0,18,0,12.6,0
2004/3/2 2:15,8.5,0,67,0,19.2,0,49.8,0,17.9,0,12.7,0
2004/3/2 2:30,8.4,0,69,0,19.2,0,49.8,0,17.7,0,12.8,0
2004/3/2 2:45,8.2,0,71,0,19.2,0,50,0,17.7,0,12.9,0
2004/3/2 3:00,8.4,0,72,0,19.1,0,50.2,0,17.6,0,13,0
2004/3/2 3:15,8.1,0,70,0,19.1,0,50.2,0,17.6,0,13.1,0
2004/3/2 3:30,8,0,68,0,19.1,0,49.8,0,17.6,0,13.2,0
2004/3/2 3:45,8.1,0,70,0,19.1,0,49.8,0,17.6,0,13.3,0
2004/3/2 4:00,8.1,0,70,0,19.1,0,49.8,0,17.5,0,13.3,0
2004/3/2 4:15,7.9,0,68,0,19,0,49.8,0,17.5,0,13.4,0
2004/3/2 4:30,8.1,0,69,0,19,0,49.9,0,17.5,0,13.5,0
2004/3/2 4:45,8,0,69,0,19,0,49.9,0,17.5,0,13.6,0
2004/3/2 5:00,8.1,0,69,0,18.9,0,49.8,0,17.5,0,13.7,0
2004/3/2 5:15,7.9,0,68,0,18.9,0,49.9,0,17.5,0,13.7,0
2004/3/2 5:30,8,0,69,0,18.9,0,49.9,0,17.5,0,13.8,0
2004/3/2 5:45,8,0,69,0,18.8,0,49.8,0,17.4,0,13.9,0
2004/3/2 6:00,7.8,0,70,0,18.8,0,49.7,0,17.4,0,14,0
2004/3/2 6:15,7.8,0,70,0,18.8,0,49.8,0,17.4,0,14,0
2004/3/2 6:30,8,0,71,0,18.8,0,49.8,0,17.4,0,14.1,0
2004/3/2 6:45,7.9,0,69,0,19,0,56.1,0,17.4,0,14.1,0
2004/3/2 7:00,7.7,0,69,0,19.1,0,55.3,0,17.4,0,14.2,0
2004/3/2 7:15,8,0,69,0,19.2,0,58.4,0,17.4,0,14.3,0
2004/3/2 7:30,8.1,0,68,0,19.1,0,54.8,0,17.4,0,13.4,0
2004/3/2 7:45,8.5,0,69,0,19.2,0,54.1,0,17.4,0,13.5,0
2004/3/2 8:00,8.7,0,68,0,19,0,51.5,0,17.4,0,13.6,0
2004/3/2 8:15,9.4,0,65,0,19.1,0,50.5,0,17.4,0,12.8,0
2004/3/2 8:30,9.7,0,57,0,19.1,0,50,0,17.4,0,12.9,0
2004/3/2 8:45,10.2,0,51,0,19.1,0,49.3,0,17.5,0,13,0
2004/3/2 9:00,10.6,0,50,0,18.9,0,45.3,0,17.6,0,13.1,0
2004/3/2 9:15,10.5,0,50,0,18.7,0,44.9,0,17.7,0,13.2,0
2004/3/2 9:30,10.6,0,48,0,18.7,0,45,0,17.8,0,11.8,0
2004/3/2 9:45,11.4,0,46,0,18.6,0,44.3,0,17.7,0,11.7,0
2004/3/2 10:00,11.4,0,43,0,18.5,0,43.7,0,17.6,0,11.9,0
2004/3/2 10:15,12.8,0,39,0,18.5,0,44,0,17.6,0,12.7,0
2004/3/2 10:30,13.2,0,36,0,18.5,0,43.8,0,17.5,0,12.8,0
2004/3/2 10:45,13.3,0,36,0,18.5,0,43.7,0,17.5,0,12.9,0
2004/3/2 11:00,12.7,0,37,0,18.6,0,43.7,0,17.5,0,13,0
2004/3/2 11:15,12.5,0,37,0,18.6,0,47.3,0,17.5,0,12.1,0
2004/3/2 11:30,12.1,0,37,0,18.8,0,52,0,17.5,0,12.2,0
2004/3/2 11:45,11.9,0,36,0,18.9,0,50.4,0,17.5,0,11.9,0
2004/3/2 12:00,11.9,0,36,0,19,0,50.6,0,17.5,0,11.9,0
2004/3/2 12:15,11.5,0,36,0,19.1,0,48,0,17.5,0,12.1,0
2004/3/2 12:30,11.4,0,39,0,19,0,46.2,0,17.5,0,12.2,0
2004/3/2 12:45,11.1,0,35,0,18.9,0,45.5,0,17.5,0,12.3,0
2004/3/2 13:00,11,0,35,0,18.7,0,44.2,0,17.5,0,12.4,0
2004/3/2 13:15,10.9,0,36,0,18.5,0,43.6,0,17.4,0,12.5,0
2004/3/2 13:30,10.8,0,34,0,18.5,0,42.8,0,17.4,0,12.6,0
2004/3/2 13:45,11,0,35,0,18.4,0,42,0,17.4,0,12.7,0
2004/3/2 14:00,10.6,0,39,0,18.5,0,41.8,0,17.4,0,13.6,0
2004/3/2 14:15,10.3,0,39,0,18.4,0,41.6,0,17.4,0,13.7,0
2004/3/2 14:30,10.1,0,37,0,18.4,0,41.5,0,17.4,0,13.7,0
2004/3/2 14:45,9.8,0,36,0,18.6,0,41.7,0,17.3,0,13.8,0
2004/3/2 15:00,10.2,0,37,0,18.9,0,45.8,0,17.3,0,13.8,0
2004/3/2 15:15,9.8,0,37,0,19,0,45.3,0,17.3,0,13.9,0
2004/3/2 15:30,10.3,0,35,0,19,0,45.9,0,17.3,0,13.5,0
2004/3/2 15:45,10.2,0,32,0,18.8,0,41.1,0,17.3,0,13.3,0
2004/3/2 16:00,10.2,0,32,0,18.6,0,40.7,0,17.3,0,13.4,0
2004/3/2 16:15,9.9,0,31,0,18.7,0,39.8,0,17.2,0,13.4,0
2004/3/2 16:30,10,0,29,0,18.5,0,39.1,0,17.2,0,12.6,0
2004/3/2 16:45,9.7,0,31,0,18.3,0,37.7,0,17.2,0,12.7,0
2004/3/2 17:00,9.3,0,31,0,18.2,0,38.1,0,17.2,0,12.8,0
2004/3/2 17:15,9.1,0,32,0,18.2,0,39.1,0,17.2,0,12.9,0
2004/3/2 17:30,8.6,0,31,0,18,0,38.4,0,17.1,0,13,0
2004/3/2 17:45,8.4,0,31,0,18.1,0,40.3,0,17.1,0,13.1,0
2004/3/2 18:00,8.9,0,31,0,18.2,0,39.5,0,17.1,0,13.2,0
2004/3/2 18:15,8.9,0,31,0,18.2,0,38.9,0,17.1,0,13.2,0
2004/3/2 18:30,9,0,31,0,18.2,0,40.3,0,17,0,13.3,0
2004/3/2 18:45,8.7,0,32,0,18.3,0,39.7,0,17,0,13.4,0
2004/3/2 19:00,8.5,0,33,0,18.3,0,40.7,0,17,0,13.5,0
2004/3/2 19:15,8.5,0,31,0,18.2,0,39,0,17,0,13.6,0
2004/3/2 19:30,8.7,0,30,0,18.1,0,37.6,0,16.9,0,12.8,0
2004/3/2 19:45,8.3,0,30,0,18.2,0,37.4,0,16.9,0,12.9,0
2004/3/2 20:00,8.8,0,30,0,18.2,0,36.7,0,16.9,0,13,0
2004/3/2 20:15,8.9,0,29,0,18,0,36,0,17,0,12.1,0
2004/3/2 20:30,8.9,0,30,0,18.2,0,36.7,0,17.1,0,12.3,0
2004/3/2 20:45,9,0,29,0,18.2,0,36.8,0,17.1,0,11.8,0
2004/3/2 21:00,9,0,28,0,18.2,0,37.4,0,17.1,0,11.4,0
2004/3/2 21:15,8.8,0,29,0,18.1,0,37,0,17,0,11.5,0
2004/3/2 21:30,8.5,0,29,0,18.1,0,36.7,0,17,0,12.2,0
2004/3/2 21:45,8.5,0,31,0,18,0,36.2,0,17.2,0,12,0
2004/3/2 22:00,8.6,0,30,0,18,0,36,0,17.1,0,12.1,0
2004/3/2 22:15,8.7,0,31,0,18.1,0,35.7,0,17,0,12.2,0
2004/3/2 22:30,8.7,0,32,0,18,0,35.4,0,17,0,12.3,0
2004/3/2 22:45,8.8,0,32,0,18,0,35.3,0,16.9,0,12.3,0
2004/3/2 23:00,8.9,0,32,0,18,0,35.6,0,16.9,0,12.4,0
2004/3/2 23:15,8.8,0,32,0,17.9,0,35.7,0,16.8,0,12.5,0
2004/3/2 23:30,8.5,0,32,0,17.9,0,35.5,0,16.8,0,12.6,0
2004/3/2 23:45,8.4,0,33,0,17.8,0,35.4,0,16.8,0,12.7,0
2004/3/3 0:00,8.3,0,33,0,17.7,0,35.5,0,16.8,0,12.8,0
2004/3/3 0:15,8.4,0,33,0,17.7,0,35.5,0,16.7,0,12.9,0
2004/3/3 0:30,8.2,0,36,0,17.6,0,35.4,0,16.7,0,13,0
2004/3/3 0:45,8.2,0,36,0,17.7,0,36.4,0,16.7,0,13.1,0
2004/3/3 1:00,8.2,0,37,0,17.6,0,35.9,0,16.7,0,13.1,0
2004/3/3 1:15,7.9,0,39,0,17.6,0,36.5,0,16.6,0,13.2,0
2004/3/3 1:30,7.9,0,42,0,17.5,0,36.1,0,16.6,0,13,0
2004/3/3 1:45,7.6,0,40,0,17.5,0,36.2,0,16.6,0,11.3,0
2004/3/3 2:00,7.5,0,43,0,17.5,0,36.3,0,16.6,0,11.4,0
2004/3/3 2:15,7.3,0,42,0,17.4,0,36.3,0,16.6,0,11.5,0
2004/3/3 2:30,7.2,0,42,0,17.4,0,36.5,0,16.5,0,11.6,0
2004/3/3 2:45,6.9,0,44,0,17.3,0,36.6,0,16.5,0,11.7,0
2004/3/3 3:00,6.7,0,45,0,17.4,0,36.8,0,16.5,0,11.8,0
2004/3/3 3:15,6.6,0,45,0,17.4,0,37.4,0,16.5,0,11.9,0
2004/3/3 3:30,6.8,0,44,0,17.4,0,37.5,0,16.5,0,12,0
2004/3/3 3:45,6.8,0,46,0,17.5,0,37.9,0,16.4,0,12.1,0
2004/3/3 4:00,6.3,0,45,0,17.5,0,37.2,0,16.4,0,12.2,0
2004/3/3 4:15,6.3,0,47,0,17.5,0,37.1,0,16.4,0,12.3,0
2004/3/3 4:30,6.2,0,48,0,17.6,0,37.6,0,16.4,0,12.4,0
2004/3/3 4:45,6.1,0,47,0,17.6,0,37.8,0,16.3,0,12.5,0
2004/3/3 5:00,5.8,0,48,0,17.6,0,37.6,0,16.3,0,12.5,0
2004/3/3 5:15,5.8,0,48,0,17.6,0,37.7,0,16.3,0,12.5,0
2004/3/3 5:30,5.8,0,49,0,17.6,0,38.5,0,16.3,0,12.6,0
2004/3/3 5:45,5.8,0,48,0,17.6,0,37.5,0,16.3,0,12.7,0
2004/3/3 6:00,5.5,0,50,0,17.5,0,37.4,0,16.3,0,12.8,0
2004/3/3 6:15,5.8,0,49,0,17.5,0,37.4,0,16.3,0,12.2,0
2004/3/3 6:30,5.7,0,50,0,17.5,0,37.4,0,16.3,0,12.3,0
2004/3/3 6:45,5.6,0,50,0,17.6,0,37.3,0,16.2,0,12.4,0
2004/3/3 7:00,5.3,0,51,0,17.5,0,37.9,0,16.2,0,12.5,0
2004/3/3 7:15,5.4,0,51,0,17.5,0,37.9,0,16.2,0,12.5,0
2004/3/3 7:30,5.4,0,50,0,17.7,0,40.2,0,16.2,0,11.7,0
2004/3/3 7:45,5.8,0,48,0,17.8,0,39.1,0,16.2,0,11.8,0
2004/3/3 8:00,6.2,0,45,0,17.7,0,38.3,0,16.2,0,11.9,0
2004/3/3 8:15,6.6,0,43,0,17.7,0,37.9,0,16.2,0,12,0
2004/3/3 8:30,7.2,0,42,0,17.7,0,38,0,16.2,0,12.1,0
2004/3/3 8:45,7.7,0,41,0,17.4,0,37.3,0,16.2,0,10.7,0
2004/3/3 9:00,7.9,0,42,0,17.3,0,37.1,0,16.3,0,10.8,0
2004/3/3 9:15,8.2,0,41,0,17.2,0,37.3,0,16.4,0,11,0
2004/3/3 9:30,8.5,0,40,0,17.4,0,37,0,16.5,0,11,0
2004/3/3 9:45,8.1,0,40,0,17.5,0,36.9,0,16.4,0,11.1,0
2004/3/3 10:00,8.6,0,37,0,17.5,0,36.7,0,16.4,0,11.7,0
2004/3/3 10:15,9.3,0,35,0,17.7,0,38.5,0,16.4,0,11.8,0
2004/3/3 10:30,9.9,0,30,0,17.5,0,42.1,0,16.3,0,11.9,0
2004/3/3 10:45,9.9,0,30,0,17.2,0,37.7,0,16.3,0,12,0
2004/3/3 11:00,9.5,0,30,0,17.3,0,37.4,0,16.2,0,12.1,0
2004/3/3 11:15,9.2,0,30,0,17.1,0,36.9,0,16.2,0,12.2,0
2004/3/3 11:30,9.1,0,30,0,17,0,36.6,0,16.3,0,12.3,0
2004/3/3 11:45,9.4,0,29,0,17,0,36.2,0,16.3,0,12.4,0
2004/3/3 12:00,9.4,0,29,0,17,0,36.1,0,16.3,0,12.5,0
2004/3/3 12:15,9.5,0,28,0,17,0,35.7,0,16.3,0,12.6,0
2004/3/3 12:30,9.7,0,28,0,17,0,34.9,0,16.3,0,12.7,0
2004/3/3 12:45,9.7,0,28,0,16.9,0,34.5,0,16.3,0,12.8,0
2004/3/3 13:00,9.8,0,28,0,17.1,0,34.8,0,16.3,0,12.9,0
2004/3/3 13:15,9.9,0,28,0,17.4,0,35.3,0,16.3,0,12.9,0
2004/3/3 13:30,10.1,0,28,0,17.5,0,35.8,0,16.2,0,13,0
2004/3/3 13:45,10.2,0,29,0,17.4,0,35.9,0,16.2,0,12.2,0
2004/3/3 14:00,10.3,0,30,0,17.4,0,35.3,0,16.2,0,12.2,0
2004/3/3 14:15,10.2,0,31,0,17.4,0,35,0,16.3,0,12,0
2004/3/3 14:30,10.1,0,30,0,17.4,0,34.8,0,16.3,0,12.1,0
2004/3/3 14:45,10.1,0,30,0,17.3,0,34.7,0,16.3,0,12.2,0
2004/3/3 15:00,10.1,0,30,0,17.3,0,34.6,0,16.3,0,12.3,0
2004/3/3 15:15,10.1,0,29,0,17,0,33.4,0,16.2,0,12.8,0
2004/3/3 15:30,10.1,0,31,0,17,0,33.7,0,16.2,0,12.9,0
2004/3/3 15:45,10,0,35,0,17,0,34.3,0,16.2,0,13,0
2004/3/3 16:00,10.1,0,34,0,17.1,0,34.5,0,16.2,0,13.1,0
2004/3/3 16:15,10.1,0,35,0,17.6,0,39.2,0,16.2,0,13.1,0
2004/3/3 16:30,10,0,34,0,17.7,0,36.1,0,16.2,0,13.2,0
2004/3/3 16:45,9.8,0,33,0,17.9,0,34.1,0,16.2,0,13.3,0
2004/3/3 17:00,9.8,0,35,0,18,0,33.9,0,16.2,0,13.4,0
2004/3/3 17:15,9.8,0,35,0,18,0,36.3,0,16.2,0,13.4,0
2004/3/3 17:30,9.5,0,35,0,17.6,0,33.3,0,16.2,0,13.5,0
2004/3/3 17:45,9.6,0,35,0,17.4,0,33.3,0,16.2,0,13.6,0
2004/3/3 18:00,9.5,0,35,0,17.4,0,34.4,0,16.1,0,13.7,0
2004/3/3 18:15,9.4,0,36,0,17.6,0,35.4,0,16.1,0,13.7,0
2004/3/3 18:30,9.3,0,37,0,17.7,0,38.2,0,16.1,0,13.8,0
2004/3/3 18:45,9.1,0,40,0,17.8,0,39.5,0,16.1,0,13.9,0
2004/3/3 19:00,9.1,0,44,0,17.9,0,40,0,16.1,0,13.9,0
2004/3/3 19:15,9.3,0,51,0,18.1,0,40,0,16.1,0,14,0
2004/3/3 19:30,8.8,0,60,0,18.1,0,39.3,0,16.1,0,14.1,0
2004/3/3 19:45,8.2,0,66,0,17.9,0,39.8,0,16,0,14.1,0
2004/3/3 20:00,7.8,0,71,0,17.9,0,40.1,0,16,0,14.2,0
2004/3/3 20:15,8,0,74,0,19.9,0,37.7,0,16,0,14.2,0
2004/3/3 20:30,8.1,0,74,0,21.4,0,35,0,16,0,14.3,0
2004/3/3 20:45,8.2,0,76,0,21.3,0,36,0,16,0,14.3,0
2004/3/3 21:00,8.2,0,76,0,19.1,0,39,0,16,0,11.6,0
2004/3/3 21:15,8.5,0,74,0,18.9,0,40.9,0,16,0,11.7,0
2004/3/3 21:30,8.2,0,70,0,18.8,0,40.4,0,16,0,11.8,0
2004/3/3 21:45,8.2,0,69,0,18.6,0,40.8,0,16,0,12.2,0
2004/3/3 22:00,8.2,0,69,0,18.5,0,40.9,0,16,0,12.3,0
2004/3/3 22:15,8.2,0,69,0,18.3,0,41.2,0,16,0,12.4,0
2004/3/3 22:30,8.2,0,66,0,18.3,0,41.4,0,16,0,12.5,0
2004/3/3 22:45,8,0,64,0,18.5,0,44.2,0,16.1,0,12.6,0
2004/3/3 23:00,8.2,0,61,0,18.4,0,43.9,0,16.1,0,12.7,0
2004/3/3 23:15,8.4,0,65,0,18.3,0,42.9,0,16.1,0,12.8,0
2004/3/3 23:30,7.9,0,68,0,18.2,0,42.4,0,16.2,0,12.9,0
2004/3/3 23:45,7.7,0,71,0,18.2,0,42.5,0,16.2,0,13,0
2004/3/4 0:00,7.3,0,71,0,18.2,0,42.6,0,16.2,0,13.1,0
2004/3/4 0:15,7.6,0,65,0,18.1,0,42.1,0,16.3,0,13,0
2004/3/4 0:30,7.5,0,62,0,18.1,0,41.7,0,16.5,0,11.7,0
2004/3/4 0:45,7.8,0,56,0,17.9,0,41.1,0,16.4,0,11.8,0
2004/3/4 1:00,7.9,0,51,0,17.7,0,40.4,0,16.4,0,11.9,0
2004/3/4 1:15,7.5,0,45,0,17.5,0,40.1,0,16.4,0,12,0
2004/3/4 1:30,7.6,0,41,0,17.5,0,39.3,0,16.3,0,12.5,0
2004/3/4 1:45,7.7,0,39,0,17.4,0,38.6,0,16.3,0,12.6,0
2004/3/4 2:00,7.5,0,39,0,17.2,0,38.3,0,16.3,0,12.7,0
2004/3/4 2:15,7.4,0,38,0,17.2,0,37.8,0,16.3,0,12.7,0
2004/3/4 2:30,7.2,0,37,0,17.1,0,37.5,0,16.3,0,12.8,0
2004/3/4 2:45,7.2,0,35,0,17,0,37.3,0,16.3,0,12.9,0
2004/3/4 3:00,7.2,0,34,0,16.9,0,36.8,0,16.3,0,13,0
2004/3/4 3:15,7.2,0,34,0,16.9,0,36.4,0,16.3,0,13,0
2004/3/4 3:30,7.3,0,34,0,16.8,0,36.2,0,16.2,0,12.7,0
2004/3/4 3:45,6.9,0,35,0,16.8,0,36.1,0,16.2,0,12.7,0
2004/3/4 4:00,7.4,0,38,0,16.7,0,35.8,0,16.2,0,12.8,0
2004/3/4 4:15,7.4,0,36,0,16.6,0,35.7,0,16.2,0,12.9,0
2004/3/4 4:30,7.2,0,35,0,16.5,0,35.2,0,16.2,0,13,0
2004/3/4 4:45,7.2,0,35,0,16.5,0,35.1,0,16.2,0,13,0
2004/3/4 5:00,6.8,0,33,0,16.5,0,34.9,0,16.2,0,13.1,0
2004/3/4 5:15,6.8,0,34,0,16.4,0,34.9,0,16.2,0,13.2,0
2004/3/4 5:30,6.9,0,34,0,16.4,0,34.9,0,16.2,0,13.2,0
2004/3/4 5:45,6.8,0,35,0,16.4,0,35,0,16.2,0,13.3,0
2004/3/4 6:00,6.9,0,34,0,16.4,0,35.1,0,16.2,0,13.4,0
2004/3/4 6:15,6.6,0,33,0,16.7,0,38,0,16.2,0,13.4,0
2004/3/4 6:30,6.4,0,33,0,16.9,0,37,0,16.2,0,12.4,0
2004/3/4 6:45,6.3,0,34,0,16.9,0,37.1,0,16.2,0,10.3,0
2004/3/4 7:00,6.8,0,35,0,16.9,0,36.6,0,16.2,0,10.5,0
2004/3/4 7:15,6.8,0,35,0,16.9,0,36.6,0,16.2,0,10.6,0
2004/3/4 7:30,7.1,0,38,0,17,0,41.7,0,16.2,0,10.8,0
2004/3/4 7:45,6.9,0,39,0,17.2,0,41.2,0,16.1,0,10.9,0
2004/3/4 8:00,7,0,41,0,17.1,0,38.9,0,16.2,0,11,0
2004/3/4 8:15,6.8,0,42,0,17.2,0,38.5,0,16.1,0,11.1,0
2004/3/4 8:30,6.8,0,41,0,17.1,0,37.9,0,16.1,0,11.2,0
2004/3/4 8:45,6.7,0,45,0,16.9,0,36.1,0,16.1,0,10.4,0
2004/3/4 9:00,6.3,0,52,0,16.7,0,36.3,0,16.1,0,10.3,0
2004/3/4 9:15,6.1,0,56,0,16.7,0,36.5,0,16.1,0,10.6,0
2004/3/4 9:30,6.5,0,61,0,16.6,0,36.9,0,16.2,0,10.3,0
2004/3/4 9:45,5.8,0,64,0,16.7,0,37,0,16.2,0,10.4,0
2004/3/4 10:00,6.2,0,62,0,16.5,0,37.5,0,16.1,0,10.6,0
2004/3/4 10:15,5.8,0,64,0,16.5,0,37.8,0,16,0,10.7,0
2004/3/4 10:30,6.1,0,62,0,16.3,0,37.8,0,16,0,10.8,0
2004/3/4 10:45,5.9,0,62,0,16.2,0,37.6,0,16,0,10.9,0
2004/3/4 11:00,6.2,0,63,0,16.2,0,37.3,0,16,0,11,0
2004/3/4 11:15,6.5,0,59,0,16.1,0,37.2,0,15.9,0,11.1,0
2004/3/4 11:30,7,0,57,0,16.1,0,37,0,15.9,0,11.2,0
2004/3/4 11:45,7.2,0,52,0,16.1,0,36.8,0,15.9,0,11.3,0
2004/3/4 12:00,7.3,0,49,0,16.1,0,36.4,0,15.9,0,11.4,0
2004/3/4 12:15,7.3,0,46,0,16,0,36.1,0,15.9,0,11.5,0
2004/3/4 12:30,7.8,0,43,0,15.9,0,35.6,0,15.9,0,11.6,0
2004/3/4 12:45,7.8,0,40,0,15.8,0,35.2,0,15.9,0,11.6,0
2004/3/4 13:00,7.5,0,39,0,15.8,0,34.9,0,15.9,0,11.7,0
2004/3/4 13:15,7.5,0,39,0,15.7,0,34.4,0,15.9,0,11.8,0
2004/3/4 13:30,7.3,0,36,0,15.6,0,34.1,0,15.9,0,11.9,0
2004/3/4 13:45,7.3,0,35,0,15.6,0,33.9,0,15.9,0,11.9,0
2004/3/4 14:00,7.1,0,36,0,15.6,0,33.9,0,15.8,0,12,0
2004/3/4 14:15,7,0,35,0,15.5,0,33.8,0,15.8,0,12.1,0
2004/3/4 14:30,6.9,0,34,0,15.5,0,33.7,0,15.8,0,12.1,0
2004/3/4 14:45,7,0,34,0,15.5,0,33.7,0,15.8,0,12.2,0
2004/3/4 15:00,6.8,0,34,0,15.7,0,33.7,0,15.8,0,12.2,0
2004/3/4 15:15,6.5,0,33,0,15.9,0,32.9,0,15.8,0,12.3,0
2004/3/4 15:30,6.5,0,32,0,16.3,0,32.2,0,15.7,0,12.4,0
2004/3/4 15:45,6.5,0,34,0,16.8,0,32.9,0,15.7,0,12.4,0
2004/3/4 16:00,6.5,0,33,0,17.3,0,32.4,0,15.7,0,12.5,0
2004/3/4 16:15,6.6,0,34,0,17.5,0,31.1,0,15.7,0,12.5,0
2004/3/4 16:30,6.5,0,33,0,17.8,0,29.5,0,15.7,0,12.6,0
2004/3/4 16:45,6.5,0,34,0,17.9,0,29.4,0,15.7,0,12.6,0
2004/3/4 17:00,6.4,0,33,0,18.1,0,29.3,0,15.6,0,12.7,0
2004/3/4 17:15,6.5,0,33,0,18,0,29.6,0,15.6,0,12.7,0
2004/3/4 17:30,6.4,0,35,0,17.9,0,29.8,0,16,0,12.8,0
2004/3/4 17:45,6.2,0,35,0,17.8,0,30.4,0,16.1,0,11.8,0
2004/3/4 18:00,6.2,0,36,0,17.5,0,31.2,0,16.2,0,10.6,0
2004/3/4 18:15,6.2,0,38,0,17.1,0,31.4,0,16.2,0,10.7,0
2004/3/4 18:30,6,0,37,0,17.1,0,31.6,0,16.2,0,10.9,0
2004/3/4 18:45,5.6,0,37,0,17,0,33.3,0,16.1,0,10.9,0
2004/3/4 19:00,5.9,0,39,0,16.8,0,34.2,0,16.1,0,11,0
2004/3/4 19:15,5.8,0,37,0,16.8,0,33.4,0,15.9,0,11.1,0
2004/3/4 19:30,5.6,0,35,0,17,0,38.6,0,15.8,0,11.2,0
2004/3/4 19:45,5.5,0,35,0,17.1,0,35.5,0,15.7,0,11.3,0
2004/3/4 20:00,5.5,0,36,0,17.3,0,34.9,0,15.7,0,11.3,0
2004/3/4 20:15,5.4,0,44,0,17.3,0,34.4,0,15.7,0,11.4,0
2004/3/4 20:30,5.3,0,47,0,17.4,0,35.4,0,15.7,0,11.5,0
2004/3/4 20:45,5.3,0,48,0,19.9,0,31.2,0,15.6,0,11.6,0
2004/3/4 21:00,5.3,0,46,0,19.9,0,30.2,0,15.6,0,11.7,0
2004/3/4 21:15,5.3,0,47,0,20.7,0,29.1,0,15.5,0,11.8,0
2004/3/4 21:30,5.3,0,49,0,23.2,0,29.5,0,15.6,0,11.9,0
2004/3/4 21:45,5.3,0,49,0,23.8,0,27.7,0,15.7,0,12.5,0
2004/3/4 22:00,5,0,49,0,23.6,0,27.3,0,16.6,0,11.4,0
2004/3/4 22:15,5.1,0,52,0,23.6,0,27,0,16.7,0,10.8,0
2004/3/4 22:30,5,0,50,0,23.5,0,27,0,16.3,0,10.6,0
2004/3/4 22:45,4.8,0,50,0,23.7,0,26.5,0,16,0,10.8,0
2004/3/4 23:00,4.7,0,52,0,23.5,0,26.6,0,15.8,0,10.9,0
2004/3/4 23:15,4.7,0,56,0,23.7,0,26.3,0,15.7,0,11,0
2004/3/4 23:30,4.3,0,53,0,23.8,0,26.5,0,15.7,0,11.1,0
2004/3/4 23:45,4.2,0,54,0,24,0,26.1,0,15.6,0,11.2,0
2004/3/5 0:00,3.9,0,56,0,23.5,0,28.9,0,15.6,0,11.3,0
2004/3/5 0:15,3.7,0,57,0,20.9,0,46.1,0,15.6,0,11.4,0
2004/3/5 0:30,3.4,0,57,0,19.8,0,47.3,0,15.6,0,11.7,0
2004/3/5 0:45,3.4,0,56,0,19.3,0,47.7,0,15.6,0,10.6,0
2004/3/5 1:00,3.2,0,55,0,18.8,0,48.6,0,15.5,0,10.7,0
2004/3/5 1:15,3.5,0,54,0,18.4,0,49,0,15.4,0,10.8,0
2004/3/5 1:30,3.3,0,57,0,18.1,0,48.8,0,15.4,0,10.9,0
2004/3/5 1:45,3.1,0,58,0,17.8,0,48.1,0,15.3,0,11,0
2004/3/5 2:00,3.1,0,58,0,17.7,0,47,0,15.3,0,11,0
2004/3/5 2:15,3.1,0,57,0,17.5,0,46.9,0,15.2,0,11.1,0
2004/3/5 2:30,3,0,58,0,17.4,0,47.2,0,15.2,0,11.2,0
2004/3/5 2:45,2.8,0,58,0,17.2,0,46.6,0,15.1,0,11.3,0
2004/3/5 3:00,2.8,0,58,0,17.1,0,46.5,0,15.1,0,11.4,0
2004/3/5 3:15,2.8,0,58,0,17,0,45.8,0,15.1,0,11.5,0
2004/3/5 3:30,2.8,0,58,0,17,0,44.8,0,15,0,11.5,0
2004/3/5 3:45,2.8,0,58,0,17,0,44,0,15,0,11.6,0
2004/3/5 4:00,2.8,0,57,0,16.9,0,44.6,0,15,0,11.7,0
2004/3/5 4:15,2.8,0,58,0,16.8,0,44,0,14.9,0,11.8,0
2004/3/5 4:30,2.7,0,59,0,16.7,0,43.9,0,14.9,0,11.9,0
2004/3/5 4:45,2.8,0,58,0,16.7,0,43.1,0,14.9,0,11.9,0
2004/3/5 5:00,2.8,0,56,0,16.6,0,43,0,14.8,0,12,0
2004/3/5 5:15,2.7,0,56,0,16.6,0,42.1,0,14.8,0,12,0
2004/3/5 5:30,2.8,0,55,0,16.5,0,42,0,14.8,0,12.1,0
2004/3/5 5:45,2.7,0,57,0,16.5,0,41.3,0,14.8,0,12.2,0
2004/3/5 6:00,2.6,0,58,0,16.6,0,41.1,0,14.8,0,9.9,0
2004/3/5 6:15,2.6,0,57,0,16.6,0,40.8,0,14.7,0,10.1,0
2004/3/5 6:30,2.3,0,60,0,16.6,0,41.1,0,14.7,0,10.2,0
2004/3/5 6:45,2.3,0,62,0,17,0,61.2,0,14.7,0,9.3,0
2004/3/5 7:00,2.3,0,61,0,17,0,46.2,0,14.7,0,9.5,0
2004/3/5 7:15,2.5,0,61,0,17.1,0,44,0,14.7,0,9.6,0
2004/3/5 7:30,2.8,0,58,0,16.9,0,44.9,0,14.6,0,9.7,0
2004/3/5 7:45,3.4,0,55,0,20.3,0,36.5,0,14.6,0,9.8,0
2004/3/5 8:00,3.7,0,53,0,21.9,0,36.3,0,14.6,0,9.9,0
2004/3/5 8:15,4.2,0,50,0,21.6,0,33.3,0,14.7,0,10,0
2004/3/5 8:30,4.8,0,47,0,21.8,0,32.1,0,14.9,0,10.1,0
2004/3/5 8:45,8.4,0,39,0,20.8,0,31.8,0,15.6,0,10.2,0
2004/3/5 9:00,12,0,29,0,18.4,0,33.7,0,15.5,0,9.9,0
2004/3/5 9:15,11.9,0,29,0,17.9,0,34.2,0,16.3,0,10.1,0
2004/3/5 9:30,13.1,0,29,0,17.5,0,34.9,0,16.7,0,9.4,0
2004/3/5 9:45,13.1,0,29,0,17.2,0,35.3,0,16.5,0,9.5,0
2004/3/5 10:00,11.7,0,31,0,17,0,36.5,0,16.1,0,9.7,0
2004/3/5 10:15,12.1,0,31,0,16.9,0,36.6,0,15.9,0,9.8,0
2004/3/5 10:30,12.4,0,32,0,16.9,0,36.8,0,15.8,0,9.9,0
2004/3/5 10:45,12.2,0,33,0,16.9,0,42.2,0,15.6,0,10,0
2004/3/5 11:00,10.9,0,35,0,17,0,46.8,0,15.5,0,10.9,0
2004/3/5 11:15,10.9,0,35,0,17.1,0,45,0,15.5,0,11,0
2004/3/5 11:30,10.8,0,35,0,16.9,0,46.5,0,15.5,0,11.1,0
2004/3/5 11:45,10.5,0,36,0,16.8,0,46.6,0,15.4,0,11.2,0
2004/3/5 12:00,10.6,0,36,0,16.7,0,47,0,15.4,0,10.7,0
2004/3/5 12:15,10.5,0,37,0,16.7,0,46.9,0,15.4,0,10.8,0
2004/3/5 12:30,10.5,0,39,0,16.7,0,46.4,0,15.3,0,10.9,0
2004/3/5 12:45,10.3,0,40,0,16.6,0,47.7,0,15.3,0,11,0
2004/3/5 13:00,10.2,0,42,0,16.6,0,47.8,0,15.3,0,11.1,0
2004/3/5 13:15,10.3,0,43,0,16.5,0,48,0,15.3,0,11.2,0
2004/3/5 13:30,10.5,0,43,0,16.5,0,48.1,0,15.3,0,11.3,0
2004/3/5 13:45,10.6,0,43,0,16.5,0,47.9,0,15.2,0,11.3,0
2004/3/5 14:00,10.7,0,43,0,16.5,0,47.9,0,15.2,0,11.4,0
2004/3/5 14:15,10.6,0,44,0,16.4,0,47.9,0,15.2,0,11.5,0
2004/3/5 14:30,10.5,0,46,0,16.5,0,47.7,0,15.2,0,11.6,0
2004/3/5 14:45,10.6,0,47,0,16.5,0,47.2,0,15.2,0,11.7,0